Weather History for London Gatwick, United Kingdom

Change the Weather History Date:

Thursday, December 12, 2013

  Actual Average Record
Temperature  
Mean Temperature 36 °F -  
Max Temperature 46 °F 45 °F 55 °F (1998)
Min Temperature 26 °F 34 °F 21 °F (2012)
Degree Days  
Heating Degree Days 29    
Moisture  
Dew Point 35 °F    
Average Humidity 98    
Maximum Humidity 100    
Minimum Humidity 93    
Precipitation  
Precipitation 0.00 in 0.10 in - ()
Sea Level Pressure  
Sea Level Pressure 30.27 in    
Wind  
Wind Speed 2 mph ()    
Max Wind Speed 6 mph    
Max Gust Speed -    
Visibility 0.8 miles    
Events Fog    
Averages and records for this station are not official NWS values.
T = Trace of Precipitation, MM = Missing Value Source: Averaged Metar Reports

Daily Weather History Graph

Daily Weather History Graph

Search for Another Location

Airport:

Trip Planner

Search our weather history database for the weather conditions in past years. The results will help you decide how hot, cold, wet, or windy it might be!

Date:

Astronomy

Dec. 12, 2013 Rise Set
Actual Time 7:55 AM GMT 3:53 PM GMT
Civil Twilight 7:15 AM GMT 4:33 PM GMT
Nautical Twilight 6:33 AM GMT 5:15 PM GMT
Astronomical Twilight 5:53 AM GMT 5:55 PM GMT
Moon 1:15 PM GMT (12/12) 2:36 AM GMT (12/12)
Length of Visible Light 9h 17m
Length of Day
7h 57m
Waxing Gibbous, 78% of the Moon is Illuminated
Dec 12
Waxing Gibbous
Dec 17
Full
Dec 25
Last Quarter
Jan 1
New
Jan 8
First Quarter

Hourly Weather History & Observations

Time (GMT) Temp. Windchill Dew Point Humidity Pressure Visibility Wind Dir Wind Speed Gust Speed Precip Events Conditions
12:20 AM 30.2 °F 25.4 °F 28.4 °F 93% 30.33 in 0.1 mi East 4.6 mph - N/A Fog Light Freezing Fog
12:50 AM 30.2 °F - 28.4 °F 93% 30.33 in 0.1 mi East 2.3 mph - N/A Fog Light Freezing Fog
1:20 AM 30.2 °F - 28.4 °F 93% 30.33 in 0.1 mi Calm Calm - N/A Fog Light Freezing Fog
1:50 AM 28.4 °F 24.6 °F 28.4 °F 100% 30.33 in 0.1 mi East 3.5 mph - N/A Fog Light Freezing Fog
2:20 AM 28.4 °F 24.6 °F 28.4 °F 100% 30.30 in 0.1 mi East 3.5 mph - N/A Fog Light Freezing Fog
2:50 AM 28.4 °F 24.6 °F 28.4 °F 100% 30.30 in 0.1 mi East 3.5 mph - N/A Fog Light Freezing Fog
3:20 AM 28.4 °F - 28.4 °F 100% 30.30 in 0.1 mi ENE 2.3 mph - N/A Fog Light Freezing Fog
3:50 AM 28.4 °F - 28.4 °F 100% 30.30 in 0.1 mi East 2.3 mph - N/A Fog Light Freezing Fog
4:20 AM 28.4 °F - 26.6 °F 93% 30.27 in 0.1 mi ENE 2.3 mph - N/A Fog Light Freezing Fog
4:50 AM 26.6 °F 22.6 °F 24.8 °F 93% 30.27 in 0.4 mi East 3.5 mph - N/A Fog Light Freezing Fog
5:20 AM 26.6 °F - 26.6 °F 100% 30.27 in 0.2 mi Variable 2.3 mph - N/A Fog Light Freezing Fog
5:50 AM 28.4 °F - 26.6 °F 93% 30.27 in 0.1 mi East 2.3 mph - N/A Fog Light Freezing Fog
6:20 AM 28.4 °F - 28.4 °F 100% 30.27 in 0.1 mi Calm Calm - N/A Fog Light Freezing Fog
6:50 AM 28.4 °F - 28.4 °F 100% 30.27 in 0.1 mi Variable 2.3 mph - N/A Fog Light Freezing Fog
7:20 AM 28.4 °F - 28.4 °F 100% 30.27 in 0.2 mi Calm Calm - N/A Fog Light Freezing Fog
7:50 AM 30.2 °F - 28.4 °F 93% 30.27 in 0.2 mi Calm Calm - N/A Fog Light Freezing Fog
8:20 AM 28.4 °F 23.3 °F 28.4 °F 100% 30.30 in 0.2 mi East 4.6 mph - N/A Fog Light Freezing Fog
8:50 AM 30.2 °F - 30.2 °F 100% 30.30 in 0.7 mi Calm Calm - N/A   Mostly Cloudy
9:20 AM 32.0 °F - 32.0 °F 100% 30.30 in 0.9 mi Calm Calm - N/A   Mostly Cloudy
9:50 AM 32.0 °F - 32.0 °F 100% 30.30 in 1.0 mi Calm Calm - N/A   Overcast
10:20 AM 32.0 °F 27.5 °F 32.0 °F 100% 30.30 in 0.7 mi East 4.6 mph - N/A   Overcast
10:50 AM 35.6 °F - 35.6 °F 100% 30.27 in 1.2 mi Calm Calm - N/A   Mostly Cloudy
11:20 AM 37.4 °F - 37.4 °F 100% 30.27 in 1.4 mi Variable 2.3 mph - N/A   Mostly Cloudy
11:50 AM 41.0 °F 39.0 °F 41.0 °F 100% 30.27 in 1.4 mi Variable 3.5 mph - N/A   Mostly Cloudy
12:20 PM 42.8 °F - 41.0 °F 93% 30.27 in 1.2 mi Variable 2.3 mph - N/A   Mostly Cloudy
12:50 PM 42.8 °F - 42.8 °F 100% 30.27 in 1.4 mi Variable 2.3 mph - N/A   Mostly Cloudy
1:20 PM 42.8 °F - 41.0 °F 93% 30.27 in 1.6 mi Variable 2.3 mph - N/A   Mostly Cloudy
1:50 PM 42.8 °F 41.1 °F 42.8 °F 100% 30.24 in 1.4 mi ESE 3.5 mph - N/A   Mostly Cloudy
2:20 PM 42.8 °F - 42.8 °F 100% 30.24 in 1.6 mi Variable 2.3 mph - N/A   Mostly Cloudy
2:50 PM 42.8 °F 41.1 °F 41.0 °F 93% 30.24 in 1.6 mi ESE 3.5 mph - N/A   Partly Cloudy
3:20 PM 42.8 °F - 42.8 °F 100% 30.24 in 1.6 mi SE 2.3 mph - N/A   Mist
3:50 PM 39.2 °F 35.9 °F 37.4 °F 93% 30.24 in 1.2 mi East 4.6 mph - N/A   Partly Cloudy
4:20 PM 37.4 °F 34.9 °F 37.4 °F 100% 30.24 in 1.2 mi ENE 3.5 mph - N/A   Scattered Clouds
4:50 PM 37.4 °F - 35.6 °F 93% 30.24 in 1.1 mi Variable 2.3 mph - N/A   Scattered Clouds
5:20 PM 35.6 °F - 33.8 °F 93% 30.24 in 1.1 mi Variable 2.3 mph - N/A   Scattered Clouds
5:50 PM 35.6 °F 32.8 °F 33.8 °F 93% 30.24 in 1.1 mi East 3.5 mph - N/A   Scattered Clouds
6:20 PM 35.6 °F - 35.6 °F 100% 30.24 in 1.1 mi Calm Calm - N/A   Partly Cloudy
6:50 PM 39.2 °F - 37.4 °F 93% 30.24 in 1.1 mi Variable 2.3 mph - N/A Fog Mist
7:20 PM 35.6 °F - 35.6 °F 100% 30.24 in 1.2 mi Calm Calm - N/A   Mist
7:50 PM 39.2 °F - 39.2 °F 100% 30.24 in 0.9 mi Variable 2.3 mph - N/A   Mostly Cloudy
8:20 PM 41.0 °F - 41.0 °F 100% 30.24 in 1.0 mi Calm Calm - N/A   Mostly Cloudy
8:50 PM 44.6 °F 42.2 °F 44.6 °F 100% 30.24 in 1.4 mi South 4.6 mph - N/A   Mostly Cloudy
9:20 PM 46.4 °F 45.2 °F 44.6 °F 93% 30.24 in 1.5 mi Variable 3.5 mph - N/A   Mostly Cloudy
9:50 PM 46.4 °F 43.5 °F 46.4 °F 100% 30.24 in 1.4 mi South 5.8 mph - N/A   Mostly Cloudy
10:20 PM 46.4 °F 43.5 °F 46.4 °F 100% 30.24 in 1.1 mi South 5.8 mph - N/A   Mostly Cloudy
10:50 PM 46.4 °F 43.5 °F 44.6 °F 93% 30.21 in 1.1 mi South 5.8 mph - N/A   Mostly Cloudy
11:20 PM 46.4 °F 45.2 °F 46.4 °F 100% 30.21 in 1.3 mi Variable 3.5 mph - N/A   Mostly Cloudy
11:50 PM 46.4 °F 45.2 °F 46.4 °F 100% 30.21 in 1.7 mi Variable 3.5 mph - N/A   Mostly Cloudy